Weather History For Prescott AZ
This page updates 5 minutes after midnight. GMT -7
Station: KPRC0 Rows: 26
| Year | Date | Temp (°F) | Tmin (°F) | Tmax (°F) | RH% | Prcp | Snow | Wind | Gust | Pres | Sun | Cloud |
|---|---|---|---|---|---|---|---|---|---|---|---|---|
| 2000 | 2000-04-23 | 58.1 | 42.1 | 72.0 | 45 | — | — | 10.7 | — | 29.87 | — | 0 |
| 2001 | 2001-04-23 | 50.5 | 33.1 | 66.0 | 42 | — | — | 7.7 | — | 30.13 | — | 0 |
| 2002 | 2002-04-23 | 59.7 | 41.0 | 75.2 | 19 | — | — | 11.9 | — | 29.98 | — | 0 |
| 2003 | 2003-04-23 | 47.5 | — | — | 45 | — | — | 19.6 | — | 29.83 | — | 2 |
| 2004 | 2004-04-23 | 52.0 | 37.4 | 64.4 | 38 | — | — | 10.1 | — | 29.88 | — | 2 |
| 2005 | 2005-04-23 | 56.3 | 39.0 | 72.0 | 45 | — | — | 18.1 | — | 29.85 | — | 3 |
| 2006 | 2006-04-23 | 51.4 | 43.0 | 60.1 | 34 | 0.0 | — | 18.2 | — | 29.81 | — | 1 |
| 2007 | 2007-04-23 | 48.0 | 39.9 | 53.1 | 48 | — | — | 18.1 | — | 29.83 | — | 4 |
| 2008 | 2008-04-23 | 57.6 | 41.0 | 69.1 | 23 | 0.0 | — | 18.0 | — | 29.80 | — | 0 |
| 2009 | 2009-04-23 | 63.0 | 46.0 | 75.9 | 22 | 0.0 | — | 14.7 | — | 29.79 | — | 0 |
| 2010 | 2010-04-23 | 40.6 | 30.0 | 53.1 | 70 | 0.0 | — | 11.2 | — | 29.84 | — | 6 |
| 2011 | 2011-04-23 | 58.3 | 50.0 | 66.0 | 34 | 0.0 | — | 14.7 | — | 29.71 | — | 2 |
| 2012 | 2012-04-23 | 69.3 | 52.0 | 86.0 | 22 | 0.0 | — | 14.5 | — | 29.88 | — | 0 |
| 2013 | 2013-04-23 | 61.0 | 46.9 | 71.1 | 15 | 0.0 | — | 14.5 | — | 29.80 | — | 0 |
| 2014 | 2014-04-23 | 57.2 | 43.0 | 70.0 | 19 | 0.0 | — | 13.5 | — | 29.75 | — | 0 |
| 2015 | 2015-04-23 | 53.6 | 39.0 | 66.0 | 32 | 0.0 | — | 15.0 | — | 29.76 | — | 1 |
| 2016 | 2016-04-23 | 61.0 | 50.0 | 68.0 | 23 | 0.0 | — | 21.6 | — | 29.79 | — | 0 |
| 2017 | 2017-04-23 | 63.5 | 45.0 | 78.1 | 24 | 0.0 | — | 17.1 | — | 29.77 | — | 0 |
| 2018 | 2018-04-23 | 64.6 | 48.0 | 80.1 | 20 | 0.0 | — | 13.5 | — | 29.91 | — | 0 |
| 2019 | 2019-04-23 | 57.0 | 44.1 | 68.0 | 42 | 0.0 | — | 8.4 | — | 29.89 | — | — |
| 2020 | 2020-04-23 | 62.1 | 45.0 | 77.0 | 34 | 0.0 | — | 13.5 | — | 29.92 | — | 0 |
| 2021 | 2021-04-23 | 56.5 | 41.0 | 68.0 | 37 | 0.0 | — | 17.4 | — | 29.82 | — | — |
| 2022 | 2022-04-23 | 49.3 | 33.1 | 63.0 | 36 | 0.0 | — | 12.5 | — | 29.92 | — | 0 |
| 2023 | 2023-04-23 | 59.2 | 42.1 | 73.9 | 32 | 0.0 | — | 11.7 | — | 29.76 | — | 1 |
| 2024 | 2024-04-23 | 63.5 | 48.9 | 73.9 | 24 | 0.0 | — | 15.4 | — | 29.84 | — | 0 |
| 2025 | 2025-04-23 | 59.5 | 44.1 | 70.0 | 23 | 0.0 | — | 13.3 | — | 29.78 | — | 0 |